FW3222 Weather Reports


time (UTC)temp
F
wind
direction
speed
knots
gust
knots
rain 1hr
in
rain 24hr
in
rain mn
in
humidity
%
barometer
mb
20260505180902 83 236 4.3 11.3 0.00 0.00 0.00 22 1008.9
20260505180603 83 225 4.3 11.3 0.00 0.00 0.00 24 1008.9
20260505175827 83 193 4.3 11.3 0.00 0.00 0.00 23 1009.0
20260505175519 83 287 3.5 11.3 0.00 0.00 0.00 24 1008.9
20260505175219 83 335 4.3 11.3 0.00 0.00 0.00 23 1008.9
20260505174907 83 23 3.5 9.6 0.00 0.00 0.00 26 1009.2
20260505174607 82 219 3.5 11.3 0.00 0.00 0.00 27 1008.9
20260505173849 82 195 4.3 11.3 0.00 0.00 0.00 20 1009.0
20260505173124 82 164 4.3 14.8 0.00 0.00 0.00 26 1009.1
20260505172828 82 146 4.3 14.8 0.00 0.00 0.00 25 1009.2
20260505172523 82 158 5.2 21.7 0.00 0.00 0.00 24 1009.1
20260505172220 81 227 4.3 21.7 0.00 0.00 0.00 23 1009.3
20260505171914 81 355 4.3 21.7 0.00 0.00 0.00 24 1009.2
20260505171611 82 236 5.2 21.7 0.00 0.00 0.00 23 1009.2
20260505171306 82 180 4.3 21.7 0.00 0.00 0.00 22 1009.4
20260505170536 83 228 3.5 17.4 0.00 0.00 0.00 22 1009.5
20260505170230 83 195 3.5 17.4 0.00 0.00 0.00 24 1009.4
20260505165925 83 209 4.3 17.4 0.00 0.00 0.00 26 1009.4
20260505165616 82 217 5.2 17.4 0.00 0.00 0.00 24 1009.4
20260505164853 82 228 5.2 16.5 0.00 0.00 0.00 23 1009.7
20260505164552 82 213 5.2 13.0 0.00 0.00 0.00 25 1009.7
20260505164245 82 164 5.2 13.0 0.00 0.00 0.00 24 1009.7
20260505163950 82 238 4.3 12.2 0.00 0.00 0.00 25 1009.8
20260505163644 82 229 3.5 12.2 0.00 0.00 0.00 25 1009.8
20260505163346 81 157 4.3 12.2 0.00 0.00 0.00 26 1009.8
20260505162629 81 254 5.2 22.6 0.00 0.00 0.00 28 1010.0
20260505162325 81 244 4.3 22.6 0.00 0.00 0.00 28 1010.0
20260505162016 81 123 3.5 22.6 0.00 0.00 0.00 29 1010.1
20260505161710 80 326 3.5 22.6 0.00 0.00 0.00 29 1010.2
20260505161410 80 246 4.3 22.6 0.00 0.00 0.00 30 1010.3
20260505161111 80 191 4.3 22.6 0.00 0.00 0.00 27 1010.6
20260505160813 80 232 5.2 13.9 0.00 0.00 0.00 29 1010.5
20260505160513 80 228 4.3 13.9 0.00 0.00 0.00 29 1010.4
20260505160200 80 304 4.3 13.9 0.00 0.00 0.00 28 1010.5
20260505153337 78 242 4.3 15.6 0.00 0.00 0.00 29 1010.4
20260505153041 78 275 4.3 14.8 0.00 0.00 0.00 30 1010.4
20260505152728 78 232 4.3 14.8 0.00 0.00 0.00 31 1010.4
20260505152419 78 239 3.5 12.2 0.00 0.00 0.00 31 1010.4
20260505151701 78 174 3.5 12.2 0.00 0.00 0.00 33 1010.4
20260505151400 77 227 2.6 12.2 0.00 0.00 0.00 31 1010.5
20260505151049 77 166 2.6 12.2 0.00 0.00 0.00 33 1010.5
20260505150742 77 227 2.6 12.2 0.00 0.00 0.00 32 1010.6
20260505150429 77 65 3.5 12.2 0.00 0.00 0.00 33 1010.5
20260505150122 77 312 3.5 12.2 0.00 0.00 0.00 32 1010.5
20260505140456 71 288 0.0 1.7 0.00 0.00 0.00 44 1010.9
20260505140150 71 318 0.0 1.7 0.00 0.00 0.00 44 1010.9
20260505130207 67 61 0.0 1.7 0.00 0.00 0.00 47 1011.3
20260505124940 66 138 0.0 1.7 0.00 0.00 0.00 49 1011.5
20260505124628 66 24 0.0 1.7 0.00 0.00 0.00 49 1011.6
20260505123907 65 28 0.9 1.7 0.00 0.00 0.00 51 1011.5
20260505123606 65 46 0.9 1.7 0.00 0.00 0.00 51 1011.5
20260505123257 64 28 0.9 3.5 0.00 0.00 0.00 52 1011.6
20260505122950 64 304 0.0 3.5 0.00 0.00 0.00 52 1011.5
20260505122647 64 302 0.0 3.5 0.00 0.00 0.00 52 1011.5
20260505122334 64 272 0.9 3.5 0.00 0.00 0.00 51 1011.6
20260505122033 64 138 0.9 3.5 0.00 0.00 0.00 51 1011.5
20260505121720 64 207 0.9 3.5 0.00 0.00 0.00 51 1011.5
20260505121424 64 311 0.9 3.5 0.00 0.00 0.00 52 1011.6
20260505121113 63 325 0.9 2.6 0.00 0.00 0.00 53 1011.6
20260505120355 62 292 0.9 2.6 0.00 0.00 0.00 54 1011.5
20260505120044 62 325 0.0 2.6 0.00 0.00 0.00 54 1011.5
20260505115731 62 313 0.0 2.6 0.00 0.00 0.00 55 1011.5
20260505115430 61 284 0.0 2.6 0.00 0.00 0.00 56 1011.5
20260505115119 61 275 0.0 2.6 0.00 0.00 0.00 57 1011.4
20260505114820 60 216 0.0 0.9 0.00 0.00 0.00 59 1011.3
20260505114511 59 320 0.0 0.9 0.00 0.00 0.00 58 1011.3
20260505114208 59 98 0.0 0.9 0.00 0.00 0.00 59 1011.4
20260505113909 58 164 0.0 0.0 0.00 0.00 0.00 60 1011.2
20260505113600 58 164 0.0 0.9 0.00 0.00 0.00 60 1011.3
20260505112840 57 305 0.0 0.0 0.00 0.00 0.00 62 1011.2
20260505112536 56 305 0.0 0.9 0.00 0.00 0.00 63 1011.2
20260505112223 56 305 0.0 0.0 0.00 0.00 0.00 63 1011.1
20260505111916 56 305 0.0 0.0 0.00 0.00 0.00 63 1011.1
20260505111617 56 305 0.0 0.0 0.00 0.00 0.00 63 1011.0
20260505111307 55 205 0.0 0.0 0.00 0.00 0.00 64 1011.0
20260505110957 55 202 0.0 0.9 0.00 0.00 0.00 64 1011.0
20260505110651 55 318 0.0 0.9 0.00 0.00 0.00 66 1011.0
20260505110346 54 190 0.0 0.0 0.00 0.00 0.00 66 1011.0
20260505101825 51 96 0.0 0.0 0.00 0.00 0.00 65 1010.8
20260505101526 51 96 0.0 0.0 0.00 0.00 0.00 65 1010.7
20260505101215 52 96 0.0 0.0 0.00 0.00 0.00 65 1010.7
20260505100456 52 94 0.0 0.9 0.00 0.00 0.00 66 1010.6
20260505100154 51 136 0.0 0.0 0.00 0.00 0.00 65 1010.8
20260505095852 51 138 0.0 0.0 0.00 0.00 0.00 65 1010.7
20260505095541 51 144 0.0 0.0 0.00 0.00 0.00 65 1010.6
20260505093949 52 196 0.0 0.0 0.00 0.00 0.00 65 1010.3
20260505093640 52 196 0.0 0.0 0.00 0.00 0.00 65 1010.4
20260505093332 52 196 0.0 0.0 0.00 0.00 0.00 65 1010.3
20260505093017 52 196 0.0 0.0 0.00 0.00 0.00 65 1010.3
20260505092717 52 191 0.0 0.0 0.00 0.00 0.00 65 1010.3
20260505092412 52 173 0.0 0.0 0.00 0.00 0.00 65 1010.2
20260505092101 52 180 0.0 0.0 0.00 0.00 0.00 65 1010.3
20260505091754 52 180 0.0 0.0 0.00 0.00 0.00 65 1010.4
20260505091033 52 198 0.0 0.0 0.00 0.00 0.00 65 1010.5
20260505090737 52 198 0.0 0.0 0.00 0.00 0.00 65 1010.3
20260505090429 52 198 0.0 0.0 0.00 0.00 0.00 65 1010.3
20260505090125 52 198 0.0 0.0 0.00 0.00 0.00 64 1010.4
20260505085405 52 198 0.0 0.0 0.00 0.00 0.00 64 1010.4
20260505085105 53 198 0.0 0.0 0.00 0.00 0.00 64 1010.5
20260505084342 53 198 0.0 0.0 0.00 0.00 0.00 64 1010.4
20260505084029 53 198 0.0 0.0 0.00 0.00 0.00 64 1010.5
20260505083722 53 198 0.0 0.0 0.00 0.00 0.00 64 1010.4
20260505083411 53 198 0.0 0.0 0.00 0.00 0.00 64 1010.4
20260505083112 53 198 0.0 0.0 0.00 0.00 0.00 64 1010.4
20260505082813 53 205 0.0 0.0 0.00 0.00 0.00 64 1010.4
20260505082100 54 257 0.0 0.0 0.00 0.00 0.00 64 1010.2
20260505081751 54 257 0.0 0.0 0.00 0.00 0.00 63 1010.2
20260505081450 54 257 0.0 0.0 0.00 0.00 0.00 63 1010.2
20260505081143 54 257 0.0 0.0 0.00 0.00 0.00 63 1010.2
20260505080844 54 257 0.0 0.0 0.00 0.00 0.00 62 1010.3
20260505080530 54 257 0.0 0.0 0.00 0.00 0.00 63 1010.4
20260505075806 55 257 0.0 0.0 0.00 0.00 0.00 62 1010.2
20260505075455 55 257 0.0 0.0 0.00 0.00 0.00 62 1010.1
20260505075143 55 257 0.0 0.0 0.00 0.00 0.00 62 1010.2
20260505074839 55 257 0.0 0.0 0.00 0.00 0.00 62 1010.1
20260505074117 55 257 0.0 0.0 0.00 0.00 0.00 61 1010.1
20260505073809 56 257 0.0 0.0 0.00 0.00 0.00 62 1010.1
20260505073458 56 257 0.0 0.0 0.00 0.00 0.00 61 1010.1
20260505073148 56 258 0.0 0.0 0.00 0.00 0.00 61 1010.0
20260505072840 56 339 0.0 0.0 0.00 0.00 0.00 61 1010.1
20260505072536 56 339 0.0 0.0 0.00 0.00 0.00 61 1010.0
20260505071757 56 342 0.0 0.0 0.00 0.00 0.00 60 1010.1
20260505071451 57 342 0.0 0.0 0.00 0.00 0.00 60 1010.0
20260505071140 57 342 0.0 0.0 0.00 0.00 0.00 60 1010.0
20260505070844 57 342 0.0 0.0 0.00 0.00 0.00 59 1010.0
20260505070533 57 342 0.0 0.0 0.00 0.00 0.00 59 1010.1
20260505070220 57 345 0.0 0.0 0.00 0.00 0.00 59 1010.1
20260505065912 57 286 0.0 0.0 0.00 0.00 0.00 59 1010.2
20260505065147 58 275 0.0 0.0 0.00 0.00 0.00 59 1010.1
20260505064845 58 275 0.0 0.0 0.00 0.00 0.00 59 1010.2
20260505064536 58 275 0.0 0.0 0.00 0.00 0.00 58 1010.2
20260505064224 58 275 0.0 0.0 0.00 0.00 0.00 58 1010.2
20260505063918 58 284 0.0 0.0 0.00 0.00 0.00 58 1010.2
20260505063612 58 284 0.0 0.0 0.00 0.00 0.00 58 1010.2
20260505062851 58 313 0.0 0.0 0.00 0.00 0.00 58 1010.3
20260505062546 58 313 0.0 0.0 0.00 0.00 0.00 58 1010.3
20260505062236 58 313 0.0 0.0 0.00 0.00 0.00 58 1010.2
20260505061519 58 306 0.0 0.0 0.00 0.00 0.00 58 1010.4
20260505061206 58 306 0.0 0.0 0.00 0.00 0.00 57 1010.3
20260505060902 58 306 0.0 0.0 0.00 0.00 0.00 57 1010.3
20260505060552 58 306 0.0 0.0 0.00 0.00 0.00 57 1010.5
20260505060248 58 306 0.0 0.0 0.00 0.00 0.00 57 1010.4
20260505055951 58 306 0.0 0.0 0.00 0.00 0.00 56 1010.5
20260505055642 58 315 0.0 0.0 0.00 0.00 0.00 56 1010.5
20260505055333 58 315 0.0 0.0 0.00 0.00 0.00 56 1010.5
20260505055034 58 315 0.0 0.0 0.00 0.00 0.00 56 1010.5
20260505054730 59 315 0.0 0.0 0.00 0.00 0.00 56 1010.4
20260505054420 58 315 0.0 0.0 0.00 0.00 0.00 56 1010.4
20260505054117 58 315 0.0 0.0 0.00 0.00 0.00 56 1010.3
20260505053811 58 315 0.0 0.0 0.00 0.00 0.00 56 1010.5
20260505053506 59 315 0.0 0.0 0.00 0.00 0.00 56 1010.3
20260505053201 59 315 0.0 0.0 0.00 0.00 0.00 56 1010.3
20260505052849 59 315 0.0 0.0 0.00 0.00 0.00 56 1010.2
20260505052549 59 315 0.0 0.0 0.00 0.00 0.00 56 1010.2
20260505052247 59 315 0.0 0.0 0.00 0.00 0.00 55 1010.2
20260505051948 59 315 0.0 0.0 0.00 0.00 0.00 55 1010.1
20260505051222 59 315 0.0 0.0 0.00 0.00 0.00 55 1010.2
20260505050909 59 315 0.0 0.0 0.00 0.00 0.00 54 1010.2
20260505050604 59 315 0.0 0.0 0.00 0.00 0.00 54 1010.2
20260505050304 59 315 0.0 0.0 0.00 0.00 0.00 54 1010.2
20260505041521 59 288 0.0 0.0 0.00 0.00 0.00 52 1009.9
20260505041222 59 288 0.0 0.9 0.00 0.00 0.00 52 1009.9
20260505040513 59 288 0.0 0.0 0.00 0.00 0.00 52 1009.9
20260505040209 59 288 0.0 0.0 0.00 0.00 0.00 52 1009.8
20260505035910 59 288 0.0 0.0 0.00 0.00 0.00 51 1009.8
20260505035605 59 288 0.0 0.0 0.00 0.00 0.00 52 1009.7
20260505035304 59 288 0.0 0.0 0.00 0.00 0.00 51 1009.7
20260505033729 60 288 0.0 0.0 0.00 0.00 0.00 50 1009.8
20260505033417 60 288 0.0 0.0 0.00 0.00 0.00 49 1009.8
20260505032642 60 288 0.0 0.0 0.00 0.00 0.00 48 1009.8
20260505032340 61 288 0.0 0.0 0.00 0.00 0.00 47 1009.7
20260505032035 61 288 0.0 0.0 0.00 0.00 0.00 47 1009.7
20260505031739 61 288 0.0 0.0 0.00 0.00 0.00 47 1009.8
20260505031426 61 288 0.0 0.0 0.00 0.00 0.00 46 1009.8
20260505031114 62 289 0.0 0.0 0.00 0.00 0.00 46 1009.7
20260505030802 62 289 0.0 0.0 0.00 0.00 0.00 45 1009.8
20260505030505 62 289 0.0 0.0 0.00 0.00 0.00 45 1009.8
20260505030157 62 289 0.0 0.0 0.00 0.00 0.00 44 1009.8
20260505025854 62 289 0.0 0.0 0.00 0.00 0.00 44 1009.8
20260505025137 63 298 0.0 0.0 0.00 0.00 0.00 43 1009.8
20260505024419 64 298 0.0 0.9 0.00 0.00 0.00 42 1009.8
20260505024115 64 298 0.0 0.9 0.00 0.00 0.00 42 1009.7
20260505023356 64 294 0.0 0.9 0.00 0.00 0.00 41 1009.7
20260505022637 65 240 0.0 1.7 0.00 0.00 0.00 40 1009.7
20260505022329 65 230 0.0 1.7 0.00 0.00 0.00 39 1009.7
20260505022020 66 230 0.0 1.7 0.00 0.00 0.00 38 1009.7
20260505021723 66 222 0.0 1.7 0.00 0.00 0.00 37 1009.6
20260505021423 66 220 0.0 0.9 0.00 0.00 0.00 37 1009.5
20260505021118 67 161 0.0 0.0 0.00 0.00 0.00 37 1009.4
20260505020815 67 163 0.0 0.0 0.00 0.00 0.00 36 1009.5
20260505020511 67 221 0.0 0.0 0.00 0.00 0.00 36 1009.6
20260505020212 67 221 0.0 5.2 0.00 0.00 0.00 35 1009.7
20260505015915 68 195 0.0 5.2 0.00 0.00 0.00 35 1009.7
20260505015610 68 190 0.9 7.0 0.00 0.00 0.00 35 1009.6
20260505015313 68 223 1.7 7.0 0.00 0.00 0.00 35 1009.7
20260505014542 68 200 0.0 9.6 0.00 0.00 0.00 34 1009.5
20260505014238 68 238 0.0 9.6 0.00 0.00 0.00 34 1009.5
20260505013935 68 286 0.9 9.6 0.00 0.00 0.00 34 1009.6
20260505013202 68 279 1.7 6.1 0.00 0.00 0.00 34 1009.5
20260505012902 68 218 0.9 6.1 0.00 0.00 0.00 34 1009.5
20260505012551 68 140 1.7 0.0 0.00 0.00 0.00 34 1009.4
20260505011821 68 246 2.6 11.3 0.00 0.00 0.00 34 1009.2
20260505011515 68 194 2.6 11.3 0.00 0.00 0.00 34 1009.1
20260505010749 68 140 2.6 11.3 0.00 0.00 0.00 34 1009.0
20260505010448 68 153 2.6 7.8 0.00 0.00 0.00 35 1009.0
20260505010145 68 198 1.7 7.8 0.00 0.00 0.00 34 1009.1
20260505005848 68 212 1.7 7.8 0.00 0.00 0.00 35 1009.1
20260505005538 68 207 1.7 7.8 0.00 0.00 0.00 35 1009.1
20260505005233 68 207 1.7 7.8 0.00 0.00 0.00 35 1009.2
20260505004921 68 208 1.7 7.8 0.00 0.00 0.00 34 1009.0
20260505004614 68 174 1.7 7.8 0.00 0.00 0.00 34 1009.0
20260505004312 68 154 0.9 7.8 0.00 0.00 0.00 34 1009.0
20260505004014 68 128 1.7 7.8 0.00 0.00 0.00 34 1008.9
20260505003700 68 87 1.7 7.8 0.00 0.00 0.00 34 1008.7
20260505003359 69 83 1.7 7.8 0.00 0.00 0.00 33 1008.8
20260505002643 69 132 1.7 7.0 0.00 0.00 0.00 33 1008.8
20260505002343 69 208 1.7 7.0 0.00 0.00 0.00 34 1008.8
20260505002047 69 193 1.7 6.1 0.00 0.00 0.00 33 1008.8
20260505001312 69 173 0.9 9.6 0.00 0.00 0.00 32 1008.8
20260505001009 69 122 0.9 9.6 0.00 0.00 0.00 32 1008.7
20260505000242 70 200 1.7 9.6 0.00 0.00 0.00 33 1008.8
20260504235944 70 269 1.7 9.6 0.00 0.00 0.00 33 1008.8
20260504235218 70 192 1.7 7.0 0.00 0.00 0.00 31 1008.7
20260504234922 70 200 1.7 9.6 0.00 0.00 0.00 31 1008.8
20260504234624 70 265 1.7 9.6 0.00 0.00 0.00 32 1008.7
20260504234311 71 136 1.7 9.6 0.00 0.00 0.00 32 1008.7
20260504233958 71 185 1.7 9.6 0.00 0.00 0.00 31 1008.7
20260504233657 71 183 1.7 9.6 0.00 0.00 0.00 31 1008.6
20260504233354 71 169 1.7 9.6 0.00 0.00 0.00 32 1008.6
20260504233041 71 185 1.7 9.6 0.00 0.00 0.00 30 1008.6
20260504232739 71 126 1.7 6.1 0.00 0.00 0.00 31 1008.6
20260504232437 71 156 1.7 6.1 0.00 0.00 0.00 30 1008.6
20260504232135 71 158 0.9 6.1 0.00 0.00 0.00 30 1008.6
20260504231831 72 45 1.7 7.8 0.00 0.00 0.00 30 1008.6
20260504231520 72 232 1.7 7.8 0.00 0.00 0.00 32 1008.6
20260504231219 72 217 1.7 7.8 0.00 0.00 0.00 31 1008.6
20260504230916 72 194 1.7 12.2 0.00 0.00 0.00 30 1008.6
20260504230608 72 123 1.7 12.2 0.00 0.00 0.00 31 1008.6
20260504230304 72 238 1.7 12.2 0.00 0.00 0.00 29 1008.7
20260504225959 72 134 2.6 12.2 0.00 0.00 0.00 29 1008.7
20260504225657 72 270 2.6 12.2 0.00 0.00 0.00 29 1008.8
20260504225344 73 191 2.6 12.2 0.00 0.00 0.00 29 1008.8
20260504225045 73 138 2.6 12.2 0.00 0.00 0.00 27 1008.9
20260504224731 73 140 1.7 7.8 0.00 0.00 0.00 28 1009.0
20260504224016 74 53 1.7 7.8 0.00 0.00 0.00 27 1009.0
20260504223713 74 175 1.7 13.0 0.00 0.00 0.00 27 1009.0
20260504223407 74 64 2.6 13.0 0.00 0.00 0.00 27 1008.9
20260504223111 74 189 3.5 13.0 0.00 0.00 0.00 26 1008.9
20260504222759 75 127 3.5 13.0 0.00 0.00 0.00 27 1009.0
20260504222455 75 178 3.5 13.0 0.00 0.00 0.00 26 1008.9
20260504222143 75 198 3.5 13.0 0.00 0.00 0.00 28 1008.9
20260504221842 75 202 2.6 11.3 0.00 0.00 0.00 27 1008.9
20260504221546 75 199 2.6 11.3 0.00 0.00 0.00 26 1008.9
20260504220830 75 191 1.7 12.2 0.00 0.00 0.00 24 1008.9
20260504220047 75 277 3.5 12.2 0.00 0.00 0.00 24 1008.9
20260504215744 76 226 4.3 12.2 0.00 0.00 0.00 24 1008.9
20260504215448 76 186 3.5 12.2 0.00 0.00 0.00 25 1008.8
20260504215148 76 209 3.5 11.3 0.00 0.00 0.00 25 1008.9
20260504214847 76 188 2.6 8.7 0.00 0.00 0.00 25 1008.8
20260504214548 76 192 2.6 8.7 0.00 0.00 0.00 24 1008.8
20260504214243 76 203 2.6 8.7 0.00 0.00 0.00 24 1008.8
20260504213110 76 236 3.5 12.2 0.00 0.00 0.00 26 1008.6
20260504212804 76 211 3.5 12.2 0.00 0.00 0.00 25 1008.7
20260504212457 76 221 3.5 12.2 0.00 0.00 0.00 24 1008.8
20260504212155 76 219 3.5 12.2 0.00 0.00 0.00 25 1008.9
20260504211847 76 157 2.6 12.2 0.00 0.00 0.00 22 1008.8
20260504211537 76 210 2.6 12.2 0.00 0.00 0.00 23 1008.6
20260504211224 76 223 2.6 12.2 0.00 0.00 0.00 23 1008.8
20260504210920 76 178 2.6 8.7 0.00 0.00 0.00 23 1008.7
20260504210609 76 229 3.5 8.7 0.00 0.00 0.00 23 1008.8
20260504210306 76 219 3.5 7.8 0.00 0.00 0.00 21 1008.7
20260504210004 76 192 3.5 7.8 0.00 0.00 0.00 23 1008.8
20260504205702 77 178 3.5 9.6 0.00 0.00 0.00 23 1008.8
20260504205348 77 171 2.6 9.6 0.00 0.00 0.00 23 1008.8
20260504205049 77 233 2.6 9.6 0.00 0.00 0.00 24 1008.9
20260504204739 77 225 3.5 9.6 0.00 0.00 0.00 22 1008.9
20260504204433 77 296 2.6 9.6 0.00 0.00 0.00 23 1008.8
20260504204125 76 127 3.5 9.6 0.00 0.00 0.00 22 1008.8
20260504203827 76 153 2.6 11.3 0.00 0.00 0.00 23 1008.8
20260504203513 76 233 3.5 11.3 0.00 0.00 0.00 21 1008.8
20260504203209 76 224 2.6 11.3 0.00 0.00 0.00 23 1008.9
20260504202905 76 197 2.6 11.3 0.00 0.00 0.00 21 1009.0
20260504202604 76 243 2.6 11.3 0.00 0.00 0.00 21 1009.0
20260504202257 76 264 2.6 11.3 0.00 0.00 0.00 22 1009.0
20260504202000 76 320 2.6 11.3 0.00 0.00 0.00 22 1009.1
20260504201648 76 181 2.6 11.3 0.00 0.00 0.00 23 1009.1
20260504201338 76 180 3.5 11.3 0.00 0.00 0.00 23 1009.1
20260504201026 76 179 3.5 11.3 0.00 0.00 0.00 21 1009.2
20260504200716 76 171 3.5 14.8 0.00 0.00 0.00 21 1009.3
20260504200418 76 173 3.5 14.8 0.00 0.00 0.00 22 1009.3
20260504200110 76 197 3.5 14.8 0.00 0.00 0.00 22 1009.4
20260504195805 76 237 3.5 14.8 0.00 0.00 0.00 21 1009.4
20260504195055 76 199 3.5 14.8 0.00 0.00 0.00 22 1009.5
20260504194752 76 259 2.6 13.0 0.00 0.00 0.00 22 1009.5
20260504194021 76 185 3.5 13.0 0.00 0.00 0.00 22 1009.6
20260504193258 76 195 3.5 11.3 0.00 0.00 0.00 23 1009.8
20260504193002 76 220 3.5 11.3 0.00 0.00 0.00 24 1009.9
20260504192657 76 281 3.5 11.3 0.00 0.00 0.00 23 1009.9
20260504191940 76 185 3.5 12.2 0.00 0.00 0.00 24 1010.0
20260504191219 75 147 4.3 13.0 0.00 0.00 0.00 25 1010.2
20260504190906 76 267 4.3 13.0 0.00 0.00 0.00 23 1010.2
20260504190601 76 179 5.2 13.0 0.00 0.00 0.00 24 1010.2
20260504185842 76 286 3.5 13.0 0.00 0.00 0.00 24 1010.4
20260504184707 76 249 2.6 11.3 0.00 0.00 0.00 24 1010.6
20260504184401 76 9 2.6 11.3 0.00 0.00 0.00 27 1010.6
20260504183640 75 195 3.5 12.2 0.00 0.00 0.00 24 1010.8
20260504183329 75 178 3.5 12.2 0.00 0.00 0.00 28 1010.9
20260504183017 75 282 3.5 12.2 0.00 0.00 0.00 24 1010.8
20260504182716 75 233 4.3 12.2 0.00 0.00 0.00 25 1010.9
20260504182405 74 283 4.3 12.2 0.00 0.00 0.00 25 1010.9
20260504182109 74 225 4.3 12.2 0.00 0.00 0.00 23 1011.2
20260504181754 75 218 3.5 12.2 0.00 0.00 0.00 26 1011.2